Location: ??
(35.1714°N, 128.2806°E)
Time: 01:59:20
(UTC+00:00)

ATLAS CENTAUR R/B - Visible Passes

Search period start: 28 February 2021 00:00
Search period end: 10 March 2021 00:00
Orbit: 471 x 674 km, 64.6° (Epoch: 24 February)

Date Brightness Start Highest point End Pass type
(mag) Time Alt. Az. Time Alt. Az. Time Alt. Az.
28 Feb 2.4 10:11:13 10° SSE 10:13:53 19° ESE 10:14:41 18° E visible
28 Feb 3.8 11:49:38 10° WSW 11:50:56 17° W 11:50:56 17° W visible
28 Feb 1.4 20:16:17 32° NNW 20:18:08 80° ENE 20:22:31 10° SSE visible
01 Mar 1.7 10:12:49 10° S 10:16:07 33° ESE 10:18:33 15° ENE visible
01 Mar 4.0 11:52:56 10° W 11:54:49 15° NW 11:54:49 15° NW visible
01 Mar 1.3 20:19:53 55° WNW 20:20:28 62° WSW 20:24:49 10° SSE visible
02 Mar 1.0 10:14:49 10° SSW 10:18:24 59° ESE 10:21:58 10° NE visible
02 Mar 2.2 20:23:41 33° SW 20:23:41 33° SW 20:26:51 10° S visible
03 Mar 1.1 10:17:04 10° SSW 10:20:42 77° WNW 10:24:20 10° NNE visible
03 Mar 3.5 20:27:38 14° SSW 20:27:38 14° SSW 20:28:33 10° SSW visible
04 Mar 2.3 10:19:35 10° SW 10:23:04 42° WNW 10:26:32 10° NNE visible
05 Mar 3.3 10:22:23 10° WSW 10:25:28 26° NW 10:28:35 10° N visible
06 Mar 3.9 10:25:32 10° W 10:27:56 17° NW 10:30:21 10° N visible
07 Mar 4.2 10:29:31 10° WNW 10:30:28 11° NW 10:31:24 10° NNW visible
